CDT,Max TemperatureF,Mean TemperatureF,Min TemperatureF,Max Dew PointF,MeanDew PointF,Min DewpointF,Max Humidity, Mean Humidity, Min Humidity, Max Sea Level PressureIn, Mean Sea Level PressureIn, Min Sea Level PressureIn, Max VisibilityMiles, Mean VisibilityMiles, Min VisibilityMiles, Max Wind SpeedMPH, Mean Wind SpeedMPH, Max Gust SpeedMPH,PrecipitationIn, CloudCover, Events, WindDirDegrees
2012-10-1,72,57,42,51,44,38,89,64,39,30.02,29.97,29.91,10,9,7,31,13,37,0.00,2,,347
2012-10-2,74,54,33,39,31,20,92,53,13,30.03,29.96,29.87,10,10,7,10,3,14,0.00,0,,149
2012-10-3,82,59,35,44,37,31,79,49,18,29.94,29.86,29.75,10,10,8,29,13,36,0.00,0,,185
2012-10-4,58,51,43,45,35,30,76,56,36,30.34,30.22,29.99,10,10,9,31,14,39,T,3,Rain-Thunderstorm,338
2012-10-5,53,41,28,31,26,20,75,52,28,30.39,30.34,30.29,10,10,10,16,7,22,0.00,2,,339
2012-10-6,48,38,27,26,22,19,75,56,37,30.44,30.38,30.33,10,10,10,18,7,25,0.00,2,,334
2012-10-7,57,39,21,31,24,19,92,60,27,30.36,30.22,30.06,10,10,8,23,8,28,0.00,0,,225
2012-10-8,73,54,34,33,30,25,89,53,17,30.05,29.92,29.79,10,10,10,25,11,32,0.00,0,,194
2012-10-9,57,43,29,42,29,20,75,51,26,30.19,29.97,29.82,10,10,8,29,9,35,0.00,1,,337
2012-10-10,65,44,23,28,25,20,81,52,22,30.29,30.18,30.07,10,10,9,22,6,25,0.00,0,,201
2012-10-11,66,55,44,37,32,27,62,47,31,30.35,30.12,30.01,10,10,9,26,14,33,0.00,2,,2
2012-10-12,53,44,34,47,30,19,77,55,32,30.37,30.23,30.02,10,10,8,18,10,25,T,6,,118
2012-10-13,73,63,53,64,57,48,100,84,68,29.97,29.77,29.57,10,7,0,25,8,31,1.00,6,Fog-Rain-Thunderstorm,176
2012-10-14,70,57,43,58,45,36,90,59,28,30.01,29.84,29.62,10,8,4,25,12,31,0.14,3,Rain-Thunderstorm,331
2012-10-15,77,57,36,46,41,36,100,63,26,30.00,29.90,29.74,10,10,7,15,6,20,0.00,0,,162
2012-10-16,81,64,47,47,44,41,93,59,25,29.70,29.55,29.39,10,10,9,18,8,24,0.00,0,,220
2012-10-17,68,59,50,50,33,13,77,46,15,29.66,29.52,29.34,10,10,7,36,19,47,0.03,3,Rain,292
2012-10-18,52,49,46,39,28,21,76,53,30,29.71,29.63,29.58,10,9,7,44,27,56,0.02,6,Rain,303
2012-10-19,55,44,33,39,37,33,92,73,54,29.86,29.79,29.70,10,10,9,33,15,41,T,6,Rain,333
2012-10-20,69,49,29,42,36,29,96,64,32,29.85,29.78,29.68,10,9,7,17,6,22,0.00,0,,137
2012-10-21,81,60,38,63,51,36,92,72,51,29.78,29.73,29.68,10,9,6,22,5,24,0.01,2,Rain,119
2012-10-22,66,60,54,63,54,51,100,86,72,29.82,29.79,29.73,10,3,1,16,9,20,0.00,8,,347
2012-10-23,77,63,49,63,54,48,100,75,50,29.81,29.74,29.63,9,4,0,16,5,21,0.00,6,Fog,185
2012-10-24,56,51,45,55,53,42,100,95,89,29.79,29.77,29.74,10,2,0,29,12,38,0.01,8,Fog-Rain,14
2012-10-25,46,40,33,43,34,25,92,77,62,30.40,30.00,29.71,10,8,1,30,21,39,0.71,8,Rain-Thunderstorm,343
2012-10-26,43,32,21,27,24,21,88,67,46,30.57,30.48,30.37,10,10,8,15,7,18,0.00,4,,339
2012-10-27,46,33,20,29,24,17,92,71,49,30.48,30.38,30.30,10,10,8,12,4,15,0.00,2,,161
2012-10-28,53,41,29,29,28,25,85,62,38,30.35,30.28,30.20,10,10,7,18,10,22,0.00,4,,165
2012-10-29,61,52,42,33,30,28,62,49,35,30.23,30.15,30.08,10,10,10,23,13,29,0.00,3,,153
2012-10-30,55,44,32,31,30,28,82,60,38,30.11,30.08,30.05,10,10,9,15,6,20,0.00,2,,98
2012-10-31,64,46,28,40,32,27,89,62,34,30.12,30.06,29.99,10,9,6,9,2,15,0.00,1,,190